SHOLET LLEK-LLEK

Flight info

Callsign SHOLET
Flight time 0h 27m
Altitude 35000
Route SID PALMACH SFAIM NATANYA HADERA EREA 32
Aircraft F15/L-SDGRWY/XPDR

Departure

Time 2026-05-06 21:00
Airport Tel Nof Air Base (LLEK)

Arrival

Time 2026-05-06 21:28
Airport Tel Nof Air Base (LLEK)
Time Latitude Longitude Altitude Speed Heading
2026-05-06 20:56 31.82265 34.81501 188 ft 0 kts 17°
2026-05-06 20:58 31.82316 34.81517 186 ft 13 kts 26°
2026-05-06 20:58 31.82410 34.81575 182 ft 15 kts 28°
2026-05-06 20:58 31.82512 34.81641 179 ft 16 kts 29°
2026-05-06 20:59 31.82567 34.81710 181 ft 7 kts 55°
2026-05-06 20:59 31.82600 34.81735 182 ft 0 kts
2026-05-06 20:59 31.82734 34.81742 179 ft 86 kts
2026-05-06 21:00 31.83982 34.81815 285 ft 272 kts
2026-05-06 21:00 31.86172 34.81839 811 ft 317 kts 342°
2026-05-06 21:00 31.87849 34.80256 2071 ft 320 kts 303°
2026-05-06 21:00 31.88923 34.77962 3350 ft 323 kts 296°
2026-05-06 21:01 31.89883 34.75529 4628 ft 331 kts 294°
2026-05-06 21:01 31.90820 34.73029 5893 ft 338 kts 293°
2026-05-06 21:01 31.91734 34.70464 7124 ft 344 kts 292°
2026-05-06 21:01 31.92659 34.67837 8212 ft 352 kts 297°
2026-05-06 21:02 31.94369 34.65860 9297 ft 361 kts 342°
2026-05-06 21:02 31.96891 34.65894 10432 ft 371 kts 10°
2026-05-06 21:02 31.99386 34.66721 11626 ft 384 kts 15°
2026-05-06 21:02 32.01932 34.67790 12889 ft 393 kts 17°
2026-05-06 21:03 32.04517 34.68968 14162 ft 404 kts 17°
2026-05-06 21:03 32.07166 34.70186 15341 ft 413 kts 17°
2026-05-06 21:03 32.09870 34.71405 16564 ft 420 kts 17°
2026-05-06 21:03 32.12638 34.72619 17840 ft 429 kts 16°
2026-05-06 21:04 32.15496 34.73831 18712 ft 449 kts 15°
2026-05-06 21:04 32.18424 34.75048 19378 ft 445 kts 15°
2026-05-06 21:04 32.21384 34.76238 19787 ft 452 kts 14°
2026-05-06 21:04 32.24335 34.77370 19939 ft 452 kts 13°
2026-05-06 21:05 32.27325 34.78494 20013 ft 451 kts 13°
2026-05-06 21:05 32.30317 34.79585 20050 ft 450 kts 12°
2026-05-06 21:05 32.33312 34.80636 20070 ft 448 kts 11°
2026-05-06 21:05 32.36326 34.81521 20081 ft 445 kts
2026-05-06 21:06 32.39354 34.82269 20098 ft 444 kts
2026-05-06 21:06 32.42385 34.82951 20102 ft 443 kts
2026-05-06 21:06 32.45421 34.83583 20099 ft 442 kts
2026-05-06 21:06 32.48415 34.84098 20096 ft 434 kts
2026-05-06 21:07 32.51325 34.84303 19274 ft 412 kts 355°
2026-05-06 21:07 32.54154 34.84119 18066 ft 401 kts 342°
2026-05-06 21:07 32.56607 34.82787 16709 ft 383 kts 318°
2026-05-06 21:07 32.58352 34.80503 15456 ft 371 kts 302°
2026-05-06 21:08 32.59753 34.77969 14297 ft 364 kts 298°
2026-05-06 21:08 32.60908 34.75328 13054 ft 359 kts 292°
2026-05-06 21:08 32.61871 34.72614 11808 ft 355 kts 290°
2026-05-06 21:08 32.62652 34.69848 10596 ft 352 kts 284°
2026-05-06 21:09 32.63303 34.67056 9359 ft 350 kts 285°
2026-05-06 21:09 32.63956 34.64319 8108 ft 349 kts 286°
2026-05-06 21:09 32.64613 34.61559 6899 ft 347 kts 286°
2026-05-06 21:09 32.65236 34.58844 6226 ft 331 kts 284°
2026-05-06 21:10 32.65730 34.56227 5594 ft 317 kts 282°
2026-05-06 21:10 32.66087 34.53736 5330 ft 295 kts 277°
2026-05-06 21:10 32.66260 34.51403 5209 ft 278 kts 273°
2026-05-06 21:10 32.66103 34.49113 5137 ft 281 kts 245°
2026-05-06 21:11 32.64817 34.47412 5102 ft 283 kts 216°
2026-05-06 21:11 32.63087 34.46383 5074 ft 284 kts 186°
2026-05-06 21:11 32.61126 34.46540 5080 ft 285 kts 162°
2026-05-06 21:11 32.59336 34.47531 5083 ft 284 kts 148°
2026-05-06 21:12 32.57924 34.49115 5075 ft 285 kts 116°
2026-05-06 21:12 32.57283 34.51335 5086 ft 285 kts 100°
2026-05-06 21:12 32.57083 34.53671 5092 ft 285 kts 94°
2026-05-06 21:12 32.56846 34.56004 5094 ft 286 kts 98°
2026-05-06 21:13 32.56513 34.58321 5023 ft 281 kts 101°
2026-05-06 21:13 32.56098 34.60593 5011 ft 283 kts 104°
2026-05-06 21:13 32.55736 34.62874 5006 ft 282 kts 97°
2026-05-06 21:13 32.55561 34.65159 5002 ft 283 kts 92°
2026-05-06 21:14 32.55685 34.67466 4982 ft 282 kts 68°
2026-05-06 21:14 32.56876 34.69258 4988 ft 281 kts 33°
2026-05-06 21:14 32.58675 34.70097 4998 ft 281 kts
2026-05-06 21:14 32.60592 34.69827 5002 ft 280 kts 337°
2026-05-06 21:15 32.62193 34.68565 5005 ft 279 kts 312°
2026-05-06 21:15 32.63143 34.66609 4955 ft 280 kts 266°
2026-05-06 21:15 32.62100 34.64854 4879 ft 280 kts 198°
2026-05-06 21:15 32.60199 34.64423 4945 ft 280 kts 185°
2026-05-06 21:16 32.58279 34.64290 4976 ft 280 kts 182°
2026-05-06 21:16 32.56335 34.64291 4990 ft 280 kts 177°
2026-05-06 21:16 32.54437 34.64720 4945 ft 283 kts 139°
2026-05-06 21:16 32.53279 34.66559 4887 ft 273 kts 118°
2026-05-06 21:17 32.52305 34.68974 5181 ft 374 kts 113°
2026-05-06 21:17 32.51325 34.71806 6424 ft 375 kts 111°
2026-05-06 21:17 32.50378 34.74729 7687 ft 383 kts 110°
2026-05-06 21:17 32.49437 34.77716 8948 ft 392 kts 110°
2026-05-06 21:18 32.48504 34.80730 10185 ft 398 kts 111°
2026-05-06 21:18 32.47076 34.83593 10752 ft 412 kts 140°
2026-05-06 21:18 32.44492 34.84823 11218 ft 410 kts 181°
2026-05-06 21:18 32.41658 34.84279 11626 ft 413 kts 195°
2026-05-06 21:19 32.38917 34.83285 11832 ft 415 kts 199°
2026-05-06 21:19 32.36205 34.82128 11917 ft 414 kts 201°
2026-05-06 21:19 32.33538 34.80835 11955 ft 414 kts 205°
2026-05-06 21:19 32.30873 34.79542 11975 ft 414 kts 200°
2026-05-06 21:20 32.28150 34.78438 11986 ft 414 kts 198°
2026-05-06 21:20 32.25440 34.77456 11993 ft 413 kts 196°
2026-05-06 21:20 32.22667 34.76546 11998 ft 413 kts 194°
2026-05-06 21:20 32.19885 34.75688 11998 ft 413 kts 196°
2026-05-06 21:21 32.17141 34.74693 12000 ft 413 kts 198°
2026-05-06 21:21 32.14412 34.73612 12000 ft 413 kts 199°
2026-05-06 21:21 32.11701 34.72500 12000 ft 413 kts 199°
2026-05-06 21:21 32.08992 34.71371 11999 ft 413 kts 200°
2026-05-06 21:22 32.06288 34.70237 12000 ft 413 kts 200°
2026-05-06 21:22 32.03619 34.69114 12000 ft 413 kts 200°
2026-05-06 21:22 32.00912 34.67991 12000 ft 413 kts 199°
2026-05-06 21:22 31.98202 34.66890 11998 ft 404 kts 199°
2026-05-06 21:23 31.95671 34.65876 11998 ft 377 kts 198°
2026-05-06 21:23 31.93062 34.65556 11738 ft 390 kts 162°
2026-05-06 21:23 31.91020 34.67638 11364 ft 403 kts 125°
2026-05-06 21:23 31.89451 34.70272 11265 ft 355 kts 125°
2026-05-06 21:24 31.87978 34.72794 10765 ft 380 kts 122°
2026-05-06 21:24 31.86673 34.75497 8669 ft 386 kts 118°
2026-05-06 21:24 31.85288 34.78255 6426 ft 396 kts 123°
2026-05-06 21:24 31.83740 34.80664 4366 ft 335 kts 139°
2026-05-06 21:25 31.81646 34.80979 3879 ft 341 kts 232°
2026-05-06 21:25 31.81555 34.78410 3819 ft 341 kts 310°
2026-05-06 21:25 31.83668 34.77582 2946 ft 309 kts
2026-05-06 21:25 31.85529 34.77792 2516 ft 254 kts
2026-05-06 21:26 31.87298 34.78076 2497 ft 259 kts
2026-05-06 21:26 31.88793 34.78998 2434 ft 245 kts 64°
2026-05-06 21:26 31.88857 34.80862 2091 ft 232 kts 120°
2026-05-06 21:26 31.87591 34.82018 1319 ft 248 kts 179°
2026-05-06 21:27 31.86060 34.81938 598 ft 194 kts 183°
2026-05-06 21:27 31.84800 34.81861 205 ft 171 kts 183°
2026-05-06 21:27 31.83814 34.81798 183 ft 102 kts 182°
2026-05-06 21:27 31.83213 34.81767 180 ft 73 kts 182°
2026-05-06 21:28 31.82813 34.81745 179 ft 42 kts 181°
2026-05-06 21:28 31.82614 34.81732 182 ft 21 kts 182°
2026-05-06 21:28 31.82558 34.81671 180 ft 13 kts 262°
2026-05-06 21:28 31.82559 34.81569 178 ft 13 kts 276°
2026-05-06 21:29 31.82642 34.81545 178 ft 20 kts
2026-05-06 21:29 31.82764 34.81552 180 ft 15 kts
2026-05-06 21:29 31.82851 34.81557 180 ft 11 kts
2026-05-06 21:29 31.82913 34.81561 179 ft 8 kts
2026-05-06 21:30 31.82956 34.81565 179 ft 7 kts
2026-05-06 21:30 31.83187 34.81576 187 ft 36 kts
2026-05-06 21:30 31.83410 34.81587 184 ft 29 kts
2026-05-06 21:30 31.83587 34.81599 190 ft 22 kts
2026-05-06 21:31 31.83728 34.81608 183 ft 20 kts
2026-05-06 21:31 31.83874 34.81619 181 ft 15 kts 13°
2026-05-06 21:31 31.83946 34.81722 181 ft 17 kts 68°
2026-05-06 21:31 31.83875 34.81799 183 ft 26 kts 180°
2026-05-06 21:32 31.83745 34.81778 182 ft 21 kts 181°
2026-05-06 21:32 31.83217 34.81767 180 ft 32 kts 182°
2026-05-06 21:32 31.82977 34.81756 183 ft 35 kts 182°
2026-05-06 21:33 31.82754 34.81745 179 ft 29 kts 182°
2026-05-06 21:33 31.82586 34.81730 182 ft 10 kts 217°
2026-05-06 21:33 31.82685 34.81742 180 ft 78 kts
2026-05-06 21:33 31.83883 34.81806 242 ft 258 kts
2026-05-06 21:34 31.85946 34.81949 440 ft 322 kts 350°
2026-05-06 21:34 31.87400 34.80191 1786 ft 331 kts 299°
2026-05-06 21:34 31.88401 34.77842 2581 ft 323 kts 294°
2026-05-06 21:34 31.89315 34.75396 3669 ft 322 kts 293°
2026-05-06 21:35 31.90242 34.72933 5192 ft 333 kts 294°
2026-05-06 21:35 31.91226 34.70437 6697 ft 342 kts 295°
2026-05-06 21:35 31.92276 34.67891 8199 ft 349 kts 296°
2026-05-06 21:35 31.93805 34.65669 9579 ft 363 kts 334°
2026-05-06 21:36 31.96271 34.65375 10917 ft 366 kts 11°
2026-05-06 21:36 31.98716 34.66187 12414 ft 376 kts 19°
2026-05-06 21:36 32.01192 34.67278 13930 ft 384 kts 21°
2026-05-06 21:36 32.03692 34.68472 15440 ft 392 kts 22°
2026-05-06 21:37 32.06248 34.69702 16946 ft 401 kts 21°
2026-05-06 21:37 32.08877 34.70938 18280 ft 419 kts 21°
2026-05-06 21:37 32.11620 34.72185 18899 ft 420 kts 20°
2026-05-06 21:37 32.14379 34.73386 19523 ft 428 kts 19°
2026-05-06 21:38 32.17201 34.74579 19781 ft 431 kts 19°
2026-05-06 21:38 32.19999 34.75718 19889 ft 431 kts 18°
2026-05-06 21:38 32.22851 34.76798 19940 ft 430 kts 17°
2026-05-06 21:38 32.25704 34.77848 19967 ft 429 kts 17°
2026-05-06 21:39 32.28552 34.78900 19982 ft 428 kts 17°
2026-05-06 21:39 32.31394 34.79949 19990 ft 428 kts 17°
2026-05-06 21:39 32.34252 34.80938 19994 ft 427 kts 14°
2026-05-06 21:39 32.37143 34.81746 19997 ft 427 kts 12°
2026-05-06 21:40 32.40054 34.82454 19999 ft 427 kts 11°
2026-05-06 21:40 32.42972 34.83099 19999 ft 427 kts 10°
2026-05-06 21:40 32.45844 34.83682 19997 ft 417 kts
2026-05-06 21:40 32.48768 34.84137 19895 ft 429 kts
2026-05-06 21:41 32.51747 34.84290 18779 ft 426 kts 359°
2026-05-06 21:41 32.54655 34.83984 17486 ft 414 kts 341°
2026-05-06 21:41 32.57109 34.82313 16135 ft 404 kts 315°
2026-05-06 21:41 32.58733 34.79664 14826 ft 393 kts 302°
2026-05-06 21:42 32.60151 34.76933 13584 ft 385 kts 300°
2026-05-06 21:42 32.61359 34.74139 12329 ft 378 kts 294°
2026-05-06 21:42 32.62314 34.71267 11075 ft 371 kts 288°
2026-05-06 21:42 32.62975 34.68388 9840 ft 363 kts 284°
2026-05-06 21:43 32.63627 34.65523 8590 ft 356 kts 285°
2026-05-06 21:43 32.64297 34.62720 7340 ft 350 kts 286°
2026-05-06 21:43 32.64985 34.59978 6399 ft 340 kts 285°
2026-05-06 21:43 32.65573 34.57248 5709 ft 341 kts 282°
2026-05-06 21:44 32.66018 34.54508 5314 ft 338 kts 278°
2026-05-06 21:44 32.66257 34.51734 5151 ft 338 kts 273°
2026-05-06 21:44 32.66118 34.48961 5015 ft 340 kts 246°
2026-05-06 21:44 32.64558 34.46922 4915 ft 339 kts 210°
2026-05-06 21:45 32.62280 34.46317 4889 ft 340 kts 176°
2026-05-06 21:45 32.60041 34.47048 4923 ft 343 kts 152°
2026-05-06 21:45 32.58098 34.48663 4920 ft 344 kts 126°
2026-05-06 21:45 32.57196 34.51263 4914 ft 343 kts 100°
2026-05-06 21:46 32.57028 34.54092 4962 ft 345 kts 94°
2026-05-06 21:46 32.56761 34.56915 4988 ft 345 kts 99°
2026-05-06 21:46 32.56321 34.59707 4997 ft 345 kts 103°
2026-05-06 21:46 32.55792 34.62482 4998 ft 345 kts 99°
2026-05-06 21:47 32.55528 34.65305 4999 ft 345 kts 92°
2026-05-06 21:47 32.55829 34.68058 4904 ft 347 kts 58°
2026-05-06 21:47 32.57622 34.69855 4851 ft 343 kts 18°
2026-05-06 21:47 32.59974 34.70072 4868 ft 342 kts 346°
2026-05-06 21:48 32.62057 34.68794 4874 ft 342 kts 313°
2026-05-06 21:48 32.63471 34.66549 4932 ft 341 kts 295°
2026-05-06 21:48 32.64271 34.63902 4971 ft 341 kts 284°
2026-05-06 21:48 32.64769 34.61153 4991 ft 341 kts 279°
2026-05-06 21:49 32.65044 34.58361 4997 ft 342 kts 273°
2026-05-06 21:49 32.65256 34.55551 4999 ft 341 kts 276°
2026-05-06 21:49 32.65580 34.52802 5000 ft 341 kts 278°
2026-05-06 21:49 32.65454 34.50018 4949 ft 342 kts 250°
2026-05-06 21:50 32.63988 34.47904 4833 ft 343 kts 204°
2026-05-06 21:50 32.61668 34.47516 4846 ft 343 kts 169°
2026-05-06 21:50 32.59488 34.48602 4895 ft 344 kts 144°
2026-05-06 21:50 32.57727 34.50504 4927 ft 345 kts 124°
2026-05-06 21:51 32.56753 34.53087 4945 ft 344 kts 101°
2026-05-06 21:51 32.56435 34.55902 4984 ft 345 kts 97°
2026-05-06 21:51 32.56080 34.58720 4999 ft 345 kts 99°
2026-05-06 21:51 32.55667 34.61522 5003 ft 345 kts 101°
2026-05-06 21:52 32.55199 34.64312 5001 ft 346 kts 99°
2026-05-06 21:52 32.54995 34.67107 4983 ft 346 kts 82°
2026-05-06 21:52 32.55953 34.69659 4870 ft 346 kts 39°
2026-05-06 21:52 32.58163 34.70513 4827 ft 341 kts 358°
2026-05-06 21:53 32.60530 34.70296 4900 ft 343 kts 343°
2026-05-06 21:53 32.62514 34.68827 4870 ft 341 kts 306°
2026-05-06 21:53 32.63485 34.66295 4923 ft 341 kts 281°
2026-05-06 21:53 32.63972 34.63540 4978 ft 342 kts 282°
2026-05-06 21:54 32.64493 34.60789 4995 ft 341 kts 283°
2026-05-06 21:54 32.65042 34.58050 5000 ft 341 kts 283°
2026-05-06 21:54 32.65486 34.55282 4999 ft 342 kts 277°
2026-05-06 21:54 32.65655 34.52513 5000 ft 341 kts 270°
2026-05-06 21:55 32.65560 34.49701 5000 ft 341 kts 264°
2026-05-06 21:55 32.65207 34.46916 5000 ft 341 kts 258°
2026-05-06 21:55 32.64611 34.44192 5000 ft 342 kts 252°
2026-05-06 21:55 32.63787 34.41548 5000 ft 341 kts 245°
2026-05-06 21:56 32.61815 34.40752 5085 ft 348 kts 130°
2026-05-06 21:56 32.60392 34.43049 5029 ft 345 kts 117°
2026-05-06 21:56 32.59428 34.45660 5013 ft 345 kts 109°
2026-05-06 21:56 32.58775 34.48355 5009 ft 345 kts 103°
2026-05-06 21:57 32.58169 34.51115 5007 ft 346 kts 106°
2026-05-06 21:57 32.57485 34.53845 5004 ft 345 kts 107°
2026-05-06 21:57 32.56736 34.56551 5003 ft 345 kts 109°
2026-05-06 21:57 32.56070 34.59282 5000 ft 346 kts 102°
2026-05-06 21:58 32.55660 34.62086 5001 ft 345 kts 97°
2026-05-06 21:58 32.55439 34.64921 4999 ft 345 kts 91°
2026-05-06 21:58 32.55647 34.67749 4987 ft 346 kts 74°
2026-05-06 21:58 32.56972 34.69996 4857 ft 345 kts 27°
2026-05-06 21:59 32.59273 34.70500 4833 ft 343 kts 347°
2026-05-06 21:59 32.61477 34.69479 4904 ft 341 kts 328°
2026-05-06 21:59 32.63077 34.67458 4886 ft 341 kts 295°
2026-05-06 21:59 32.63914 34.64834 4949 ft 341 kts 285°
2026-05-06 22:00 32.64448 34.62090 4977 ft 341 kts 278°
2026-05-06 22:00 32.64730 34.59297 4990 ft 341 kts 277°
2026-05-06 22:00 32.65060 34.56505 4996 ft 342 kts 278°
2026-05-06 22:00 32.65432 34.53762 4998 ft 341 kts 279°
2026-05-06 22:01 32.65754 34.50976 4979 ft 342 kts 265°
2026-05-06 22:01 32.64834 34.48433 4903 ft 340 kts 228°
2026-05-06 22:01 32.62801 34.47136 4813 ft 344 kts 180°
2026-05-06 22:01 32.60558 34.47929 4830 ft 344 kts 145°
2026-05-06 22:02 32.58786 34.49817 4906 ft 344 kts 126°
2026-05-06 22:02 32.57709 34.52343 4949 ft 345 kts 105°
2026-05-06 22:02 32.57249 34.55133 4985 ft 345 kts 101°
2026-05-06 22:02 32.56714 34.57910 5000 ft 346 kts 104°
2026-05-06 22:03 32.56110 34.60626 5003 ft 345 kts 105°
2026-05-06 22:03 32.55448 34.63360 5003 ft 345 kts 107°
2026-05-06 22:03 32.54738 34.66078 5002 ft 345 kts 108°
2026-05-06 22:03 32.54160 34.68804 4996 ft 327 kts 99°
2026-05-06 22:04 32.54066 34.71345 4980 ft 295 kts 76°
2026-05-06 22:04 32.54931 34.73389 4944 ft 274 kts 40°
2026-05-06 22:04 32.56655 34.74275 4264 ft 277 kts
2026-05-06 22:04 32.58514 34.74280 4320 ft 251 kts 354°
2026-05-06 22:05 32.60250 34.73671 4709 ft 271 kts 321°
2026-05-06 22:05 32.61413 34.71994 4879 ft 270 kts 292°
2026-05-06 22:05 32.62099 34.69920 4937 ft 269 kts 291°
2026-05-06 22:05 32.62792 34.67859 4966 ft 269 kts 291°
2026-05-06 22:06 32.63416 34.65763 4982 ft 269 kts 287°
2026-05-06 22:06 32.63943 34.63642 4992 ft 267 kts 285°
2026-05-06 22:06 32.64430 34.61508 4994 ft 270 kts 284°
2026-05-06 22:06 32.64886 34.59365 4998 ft 266 kts 283°
2026-05-06 22:07 32.65329 34.57215 4997 ft 269 kts 283°
2026-05-06 22:07 32.65755 34.55104 5000 ft 267 kts 283°
2026-05-06 22:07 32.66171 34.52943 4998 ft 267 kts 282°
2026-05-06 22:07 32.66307 34.50775 5020 ft 268 kts 257°
2026-05-06 22:08 32.65627 34.48717 5016 ft 266 kts 236°
2026-05-06 22:08 32.64154 34.47469 5045 ft 273 kts 195°
2026-05-06 22:08 32.62304 34.47110 5029 ft 268 kts 182°
2026-05-06 22:08 32.60433 34.47327 5015 ft 271 kts 164°
2026-05-06 22:09 32.58862 34.48425 5052 ft 269 kts 121°
2026-05-06 22:09 32.58085 34.50475 5041 ft 271 kts 108°
2026-05-06 22:09 32.57570 34.52596 5019 ft 274 kts 104°
2026-05-06 22:09 32.57123 34.54773 5010 ft 270 kts 103°
2026-05-06 22:10 32.56705 34.56961 5000 ft 273 kts 102°
2026-05-06 22:10 32.56303 34.59140 5001 ft 270 kts 102°
2026-05-06 22:10 32.55905 34.61335 4997 ft 271 kts 102°
2026-05-06 22:10 32.55501 34.63515 4997 ft 274 kts 102°
2026-05-06 22:11 32.55098 34.65704 5000 ft 269 kts 100°
2026-05-06 22:11 32.54815 34.67917 4998 ft 273 kts 96°
2026-05-06 22:11 32.54703 34.69390 5002 ft 269 kts 91°
2026-05-06 22:11 32.55594 34.72063 5029 ft 273 kts 44°
2026-05-06 22:12 32.57194 34.73182 5026 ft 272 kts 14°
2026-05-06 22:12 32.59058 34.73270 5019 ft 268 kts 340°
2026-05-06 22:12 32.60500 34.71950 5027 ft 271 kts 300°
2026-05-06 22:12 32.61178 34.69905 5002 ft 267 kts 286°
2026-05-06 22:13 32.61726 34.67784 4984 ft 268 kts 288°
2026-05-06 22:13 32.62309 34.65698 4984 ft 269 kts 288°
2026-05-06 22:13 32.62913 34.63605 4988 ft 265 kts 289°
2026-05-06 22:13 32.63523 34.61552 4988 ft 270 kts 289°
2026-05-06 22:14 32.64149 34.59478 4995 ft 266 kts 287°
2026-05-06 22:14 32.64641 34.57341 4994 ft 268 kts 282°
2026-05-06 22:14 32.64947 34.55174 4998 ft 269 kts 273°
2026-05-06 22:14 32.64849 34.52973 5004 ft 265 kts 249°
2026-05-06 22:15 32.63644 34.51373 5049 ft 272 kts 203°
2026-05-06 22:15 32.62441 34.51013 5055 ft 269 kts 183°
2026-05-06 22:15 32.60607 34.51368 5042 ft 273 kts 154°
2026-05-06 22:15 32.58635 34.53164 5014 ft 270 kts 134°
2026-05-06 22:16 32.57456 34.54911 5000 ft 273 kts 121°
2026-05-06 22:16 32.56694 34.56945 4999 ft 271 kts 108°
2026-05-06 22:16 32.56312 34.58396 4992 ft 273 kts 105°
2026-05-06 22:16 32.55688 34.61260 4991 ft 274 kts 103°
2026-05-06 22:17 32.55409 34.62708 4993 ft 270 kts 102°
2026-05-06 22:17 32.55021 34.64891 4993 ft 274 kts 101°
2026-05-06 22:17 32.54674 34.67090 4998 ft 269 kts 98°
2026-05-06 22:17 32.54472 34.69320 4996 ft 273 kts 93°
2026-05-06 22:18 32.54644 34.72243 5016 ft 273 kts 62°
2026-05-06 22:18 32.56010 34.73723 5054 ft 272 kts 21°
2026-05-06 22:18 32.57237 34.74101 5039 ft 269 kts
2026-05-06 22:18 32.59067 34.73894 5022 ft 271 kts 340°
2026-05-06 22:19 32.60611 34.72701 5025 ft 266 kts 308°
2026-05-06 22:19 32.61547 34.70798 5005 ft 269 kts 286°
2026-05-06 22:19 32.62041 34.68679 4992 ft 268 kts 285°
2026-05-06 22:19 32.62548 34.66547 4988 ft 266 kts 285°
2026-05-06 22:20 32.63232 34.63740 4988 ft 269 kts 286°
2026-05-06 22:20 32.63751 34.61631 4992 ft 268 kts 286°
2026-05-06 22:20 32.64099 34.60219 4991 ft 269 kts 286°
2026-05-06 22:20 32.64583 34.58098 4997 ft 268 kts 283°
2026-05-06 22:21 32.64969 34.55930 4997 ft 266 kts 280°
2026-05-06 22:21 32.65226 34.53749 4998 ft 270 kts 275°
2026-05-06 22:21 32.65326 34.51548 5001 ft 265 kts 268°
2026-05-06 22:21 32.64401 34.48953 5036 ft 267 kts 209°
2026-05-06 22:22 32.63222 34.48430 5051 ft 272 kts 188°
2026-05-06 22:22 32.61361 34.48552 5034 ft 269 kts 168°
2026-05-06 22:22 32.59566 34.49133 5009 ft 271 kts 154°
2026-05-06 22:22 32.58058 34.50432 5009 ft 273 kts 128°
2026-05-06 22:23 32.57175 34.52406 5005 ft 270 kts 109°
2026-05-06 22:23 32.56610 34.54536 4992 ft 274 kts 105°
2026-05-06 22:23 32.56148 34.56704 4993 ft 269 kts 103°
2026-05-06 22:23 32.55740 34.58895 4989 ft 272 kts 102°
2026-05-06 22:24 32.55371 34.61078 4994 ft 272 kts 101°
2026-05-06 22:24 32.55034 34.63286 4995 ft 270 kts 99°
2026-05-06 22:24 32.54764 34.65499 4996 ft 274 kts 97°
2026-05-06 22:24 32.54549 34.67686 5000 ft 269 kts 96°
2026-05-06 22:25 32.54394 34.69923 4996 ft 272 kts 88°
2026-05-06 22:25 32.55079 34.71925 5045 ft 273 kts 43°
2026-05-06 22:25 32.56633 34.73184 5033 ft 269 kts 21°
2026-05-06 22:25 32.58461 34.73660 5017 ft 271 kts 353°
2026-05-06 22:26 32.60012 34.72552 5070 ft 272 kts 309°
2026-05-06 22:26 32.61092 34.70750 5037 ft 266 kts 300°
2026-05-06 22:26 32.61986 34.68803 5016 ft 269 kts 295°
2026-05-06 22:26 32.62724 34.66816 5008 ft 268 kts 290°
2026-05-06 22:27 32.63343 34.64724 5000 ft 266 kts 288°
2026-05-06 22:27 32.63896 34.62621 4997 ft 270 kts 286°
2026-05-06 22:27 32.64378 34.60493 4999 ft 266 kts 283°
2026-05-06 22:27 32.64781 34.58330 4995 ft 268 kts 281°
2026-05-06 22:28 32.65131 34.56171 4997 ft 269 kts 280°
2026-05-06 22:28 32.65436 34.53989 5000 ft 265 kts 277°
2026-05-06 22:28 32.65440 34.51791 5003 ft 270 kts 259°
2026-05-06 22:28 32.64702 34.49794 5015 ft 267 kts 232°
2026-05-06 22:29 32.63319 34.48384 5025 ft 267 kts 198°
2026-05-06 22:29 32.61471 34.48241 5041 ft 272 kts 164°
2026-05-06 22:29 32.59749 34.49121 5022 ft 269 kts 147°
2026-05-06 22:29 32.58437 34.50688 5032 ft 273 kts 115°
2026-05-06 22:30 32.57872 34.52813 5027 ft 270 kts 96°
2026-05-06 22:30 32.57686 34.55047 5008 ft 273 kts 98°
2026-05-06 22:30 32.57348 34.57238 5001 ft 271 kts 102°
2026-05-06 22:30 32.56909 34.59422 4996 ft 270 kts 104°
2026-05-06 22:31 32.56398 34.61538 4995 ft 274 kts 107°
2026-05-06 22:31 32.55869 34.63716 4999 ft 269 kts 104°
2026-05-06 22:31 32.55418 34.65862 4996 ft 272 kts 103°
2026-05-06 22:31 32.55045 34.68046 4999 ft 272 kts 95°
2026-05-06 22:32 32.55313 34.70230 5031 ft 269 kts 57°
2026-05-06 22:32 32.56678 34.71728 5042 ft 273 kts 26°
2026-05-06 22:32 32.58436 34.72475 5023 ft 268 kts
2026-05-06 22:32 32.60214 34.71923 5029 ft 270 kts 319°
2026-05-06 22:33 32.61439 34.70277 5009 ft 267 kts 297°
2026-05-06 22:33 32.62181 34.68244 4989 ft 268 kts 289°
2026-05-06 22:33 32.62765 34.66157 4986 ft 268 kts 286°
2026-05-06 22:33 32.63221 34.64042 4988 ft 265 kts 281°
2026-05-06 22:34 32.63614 34.61887 4988 ft 270 kts 283°
2026-05-06 22:34 32.64047 34.59746 4993 ft 266 kts 284°
2026-05-06 22:34 32.64514 34.57600 4992 ft 268 kts 284°
2026-05-06 22:34 32.64977 34.55474 4996 ft 269 kts 278°
2026-05-06 22:35 32.65056 34.53272 5004 ft 265 kts 262°
2026-05-06 22:35 32.64444 34.51203 5008 ft 270 kts 233°
2026-05-06 22:35 32.62965 34.49939 5037 ft 268 kts 190°
2026-05-06 22:35 32.61154 34.50198 5068 ft 272 kts 153°
2026-05-06 22:36 32.59584 34.51416 5043 ft 271 kts 142°
2026-05-06 22:36 32.58394 34.53135 5038 ft 272 kts 115°
2026-05-06 22:36 32.57695 34.55205 5025 ft 271 kts 108°
2026-05-06 22:36 32.57171 34.57364 5009 ft 271 kts 104°
2026-05-06 22:37 32.56769 34.59539 5001 ft 274 kts 99°
2026-05-06 22:37 32.56454 34.61748 5000 ft 269 kts 101°
2026-05-06 22:37 32.56079 34.63911 4995 ft 273 kts 102°
2026-05-06 22:37 32.55651 34.66083 4998 ft 271 kts 104°
2026-05-06 22:38 32.55192 34.68261 4999 ft 270 kts 99°
2026-05-06 22:38 32.55063 34.70481 5001 ft 274 kts 78°
2026-05-06 22:38 32.55967 34.72382 5041 ft 269 kts 36°
2026-05-06 22:38 32.57678 34.73289 5037 ft 270 kts
2026-05-06 22:39 32.59447 34.72776 5066 ft 271 kts 319°
2026-05-06 22:39 32.60667 34.71102 5052 ft 267 kts 301°
2026-05-06 22:39 32.61506 34.69131 5026 ft 270 kts 288°
2026-05-06 22:39 32.62056 34.67027 5011 ft 266 kts 286°
2026-05-06 22:40 32.62584 34.64902 4999 ft 268 kts 286°
2026-05-06 22:40 32.63101 34.62791 4997 ft 269 kts 286°
2026-05-06 22:40 32.63612 34.60694 4997 ft 266 kts 286°
2026-05-06 22:40 32.64128 34.58574 4996 ft 270 kts 285°
2026-05-06 22:41 32.65158 34.54329 4996 ft 268 kts 286°
2026-05-06 22:41 32.65653 34.52209 4998 ft 269 kts 280°
2026-05-06 22:41 32.65730 34.50012 5007 ft 265 kts 257°
2026-05-06 22:42 32.64967 34.48011 5010 ft 270 kts 232°
2026-05-06 22:42 32.63474 34.46802 5042 ft 270 kts 190°
2026-05-06 22:42 32.61638 34.46915 5036 ft 269 kts 161°
2026-05-06 22:42 32.60075 34.48105 5032 ft 274 kts 128°
2026-05-06 22:43 32.59182 34.50058 5018 ft 270 kts 104°
2026-05-06 22:43 32.58697 34.52230 4992 ft 272 kts 105°
2026-05-06 22:43 32.58196 34.54377 4989 ft 273 kts 105°
2026-05-06 22:43 32.57669 34.56531 4991 ft 269 kts 106°
2026-05-06 22:44 32.57127 34.58674 4990 ft 273 kts 107°
2026-05-06 22:44 32.56580 34.60807 4996 ft 270 kts 107°
2026-05-06 22:44 32.56024 34.62955 4995 ft 271 kts 107°
2026-05-06 22:44 32.55516 34.65070 4996 ft 274 kts 103°
2026-05-06 22:45 32.55144 34.67263 5000 ft 269 kts 98°
2026-05-06 22:45 32.55035 34.69492 5007 ft 273 kts 79°
2026-05-06 22:45 32.55768 34.71511 5018 ft 272 kts 48°
2026-05-06 22:45 32.57303 34.72761 5020 ft 269 kts 14°
2026-05-06 22:46 32.59156 34.72851 5013 ft 271 kts 344°
2026-05-06 22:46 32.60720 34.71729 5034 ft 267 kts 308°
2026-05-06 22:46 32.61647 34.69814 5027 ft 267 kts 285°
2026-05-06 22:46 32.62124 34.67682 5007 ft 270 kts 284°
2026-05-06 22:47 32.62601 34.65584 5001 ft 266 kts 285°
2026-05-06 22:47 32.63108 34.63451 4994 ft 268 kts 285°
2026-05-06 22:47 32.63620 34.61341 4994 ft 269 kts 286°
2026-05-06 22:47 32.64142 34.59215 4996 ft 265 kts 286°
2026-05-06 22:48 32.64664 34.57097 4996 ft 269 kts 286°
2026-05-06 22:48 32.65179 34.54983 4999 ft 266 kts 283°
2026-05-06 22:48 32.65364 34.52790 5008 ft 267 kts 260°
2026-05-06 22:48 32.64636 34.50797 5021 ft 271 kts 230°
2026-05-06 22:49 32.63232 34.49434 5026 ft 266 kts 196°
2026-05-06 22:49 32.61375 34.49393 5044 ft 271 kts 163°
2026-05-06 22:49 32.59678 34.50320 5023 ft 271 kts 143°
2026-05-06 22:49 32.58393 34.51945 5018 ft 270 kts 121°
2026-05-06 22:50 32.57429 34.53866 4996 ft 273 kts 120°
2026-05-06 22:50 32.56478 34.55793 4994 ft 269 kts 120°
2026-05-06 22:50 32.55527 34.57732 4990 ft 272 kts 120°
2026-05-06 22:50 32.54586 34.59657 4993 ft 273 kts 120°
2026-05-06 22:51 32.53652 34.61604 4996 ft 269 kts 119°
2026-05-06 22:51 32.52741 34.63527 4995 ft 273 kts 119°
2026-05-06 22:51 32.51826 34.65473 4999 ft 270 kts 119°
2026-05-06 22:51 32.50926 34.67449 4997 ft 270 kts 118°
2026-05-06 22:52 32.50058 34.69425 4998 ft 274 kts 117°
2026-05-06 22:52 32.49528 34.71544 5013 ft 270 kts 89°
2026-05-06 22:52 32.49934 34.73718 5009 ft 272 kts 67°
2026-05-06 22:52 32.50997 34.75503 5026 ft 271 kts 29°
2026-05-06 22:53 32.52803 34.75904 5071 ft 268 kts 346°
2026-05-06 22:53 32.54456 34.74978 5059 ft 271 kts 317°
2026-05-06 22:53 32.55712 34.73347 5027 ft 266 kts 307°
2026-05-06 22:53 32.56808 34.71553 5004 ft 269 kts 304°
2026-05-06 22:54 32.57841 34.69724 4999 ft 268 kts 303°
2026-05-06 22:54 32.58853 34.67860 4996 ft 266 kts 302°
2026-05-06 22:54 32.59836 34.65991 4995 ft 270 kts 301°
2026-05-06 22:54 32.60806 34.64109 4998 ft 266 kts 301°
2026-05-06 22:55 32.61728 34.62184 4997 ft 267 kts 293°
2026-05-06 22:55 32.62041 34.60098 5031 ft 267 kts 253°
2026-05-06 22:55 32.60989 34.58305 5047 ft 269 kts 217°
2026-05-06 22:55 32.59313 34.57397 5043 ft 271 kts 187°
2026-05-06 22:56 32.57453 34.57569 5031 ft 268 kts 161°
2026-05-06 22:56 32.55735 34.58479 5003 ft 272 kts 149°
2026-05-06 22:56 32.54312 34.59908 5003 ft 271 kts 129°
2026-05-06 22:56 32.53217 34.61734 4994 ft 270 kts 121°
2026-05-06 22:57 32.52317 34.63692 4991 ft 274 kts 114°
2026-05-06 22:57 32.51534 34.65722 4994 ft 269 kts 116°
2026-05-06 22:57 32.50649 34.67703 4991 ft 272 kts 119°
2026-05-06 22:57 32.49697 34.69620 4994 ft 273 kts 122°
2026-05-06 22:58 32.48980 34.71637 5009 ft 269 kts 98°
2026-05-06 22:58 32.48968 34.73868 5004 ft 272 kts 74°
2026-05-06 22:58 32.49858 34.75799 5013 ft 273 kts 39°
2026-05-06 22:58 32.51568 34.76634 5040 ft 268 kts 360°
2026-05-06 22:59 32.53446 34.76501 5017 ft 271 kts 349°
2026-05-06 22:59 32.55073 34.75516 5029 ft 269 kts 309°
2026-05-06 22:59 32.56190 34.73738 5002 ft 266 kts 304°
2026-05-06 22:59 32.57217 34.71897 4989 ft 270 kts 302°
2026-05-06 23:00 32.58203 34.70032 4991 ft 266 kts 301°
2026-05-06 23:00 32.59170 34.68133 4989 ft 268 kts 300°
2026-05-06 23:00 32.60089 34.66260 4992 ft 270 kts 299°
2026-05-06 23:00 32.60918 34.64285 4999 ft 265 kts 289°
2026-05-06 23:01 32.61422 34.62157 4996 ft 269 kts 279°
2026-05-06 23:01 32.61323 34.60012 5035 ft 267 kts 241°
2026-05-06 23:01 32.59997 34.58484 5040 ft 269 kts 211°
2026-05-06 23:01 32.58273 34.57748 5058 ft 269 kts 177°
2026-05-06 23:02 32.56441 34.58245 5044 ft 270 kts 155°
2026-05-06 23:02 32.54897 34.59509 5025 ft 273 kts 137°
2026-05-06 23:02 32.53645 34.61163 5011 ft 269 kts 123°
2026-05-06 23:02 32.52646 34.63036 4998 ft 271 kts 121°
2026-05-06 23:03 32.51696 34.64957 4995 ft 273 kts 119°
2026-05-06 23:03 32.50781 34.66917 4996 ft 269 kts 118°
2026-05-06 23:03 32.49938 34.68917 4995 ft 273 kts 113°
2026-05-06 23:03 32.49270 34.70998 4998 ft 272 kts 107°
2026-05-06 23:04 32.48976 34.73185 5022 ft 268 kts 75°
2026-05-06 23:04 32.49983 34.75023 5048 ft 273 kts 39°
2026-05-06 23:04 32.51529 34.76264 5038 ft 269 kts 13°
2026-05-06 23:04 32.53351 34.76169 5053 ft 270 kts 338°
2026-05-06 23:05 32.54967 34.75096 5038 ft 268 kts 315°
2026-05-06 23:05 32.56190 34.73416 5009 ft 267 kts 305°
2026-05-06 23:05 32.57226 34.71588 4996 ft 270 kts 301°
2026-05-06 23:05 32.58175 34.69690 4995 ft 265 kts 298°
2026-05-06 23:06 32.59053 34.67736 4991 ft 268 kts 295°
2026-05-06 23:06 32.59855 34.65757 4994 ft 269 kts 296°
2026-05-06 23:06 32.60685 34.63774 4997 ft 265 kts 296°
2026-05-06 23:06 32.61274 34.61698 5005 ft 270 kts 274°
2026-05-06 23:07 32.61070 34.59566 5021 ft 266 kts 244°
2026-05-06 23:07 32.59939 34.57828 5012 ft 267 kts 211°
2026-05-06 23:07 32.58179 34.57154 5027 ft 272 kts 180°
2026-05-06 23:07 32.56339 34.57527 5021 ft 269 kts 159°
2026-05-06 23:08 32.54777 34.58696 5013 ft 272 kts 134°
2026-05-06 23:08 32.53569 34.60437 5000 ft 271 kts 124°
2026-05-06 23:08 32.52574 34.62343 4993 ft 270 kts 117°
2026-05-06 23:08 32.51760 34.64354 4990 ft 274 kts 116°
2026-05-06 23:09 32.50922 34.66351 4994 ft 269 kts 117°
2026-05-06 23:09 32.50056 34.68311 4992 ft 271 kts 118°
2026-05-06 23:09 32.49542 34.70416 5016 ft 273 kts 87°
2026-05-06 23:09 32.50032 34.72553 5023 ft 270 kts 59°
2026-05-06 23:10 32.51319 34.74127 5043 ft 272 kts 15°
2026-05-06 23:10 32.53182 34.74291 5051 ft 271 kts 355°
2026-05-06 23:10 32.54949 34.73666 5056 ft 267 kts 325°
2026-05-06 23:10 32.56365 34.72220 5034 ft 268 kts 311°
2026-05-06 23:11 32.57414 34.70445 5017 ft 270 kts 300°
2026-05-06 23:11 32.58354 34.68537 5006 ft 265 kts 299°
2026-05-06 23:11 32.59279 34.66616 4997 ft 269 kts 299°
2026-05-06 23:11 32.60178 34.64693 4998 ft 267 kts 298°
2026-05-06 23:12 32.60769 34.62622 5014 ft 265 kts 269°
2026-05-06 23:12 32.60298 34.60505 5011 ft 270 kts 245°
2026-05-06 23:12 32.59227 34.58752 5027 ft 266 kts 210°
2026-05-06 23:12 32.57421 34.58272 5050 ft 270 kts 176°
2026-05-06 23:13 32.55578 34.58656 5030 ft 272 kts 162°
2026-05-06 23:13 32.53976 34.59720 5038 ft 269 kts 134°
2026-05-06 23:13 32.52769 34.61443 5021 ft 272 kts 124°
2026-05-06 23:13 32.51768 34.63326 5009 ft 273 kts 119°
2026-05-06 23:14 32.50934 34.65334 5005 ft 269 kts 114°
2026-05-06 23:14 32.50175 34.67382 4997 ft 273 kts 114°
2026-05-06 23:14 32.49438 34.69429 4999 ft 271 kts 105°
2026-05-06 23:14 32.49481 34.71642 5024 ft 272 kts 73°
2026-05-06 23:15 32.50274 34.73646 5021 ft 272 kts 53°
2026-05-06 23:15 32.51579 34.75250 5013 ft 268 kts 23°
2026-05-06 23:15 32.53389 34.75269 5072 ft 272 kts 335°
2026-05-06 23:15 32.54845 34.73975 5058 ft 269 kts 308°
2026-05-06 23:16 32.55981 34.72210 5021 ft 267 kts 305°
2026-05-06 23:16 32.57037 34.70392 5004 ft 270 kts 303°
2026-05-06 23:16 32.58044 34.68539 5000 ft 266 kts 301°
2026-05-06 23:16 32.59013 34.66643 4994 ft 268 kts 299°
2026-05-06 23:17 32.59852 34.64686 4995 ft 270 kts 292°
2026-05-06 23:17 32.60290 34.62558 5006 ft 265 kts 265°
2026-05-06 23:17 32.59658 34.60515 5024 ft 270 kts 231°
2026-05-06 23:17 32.58351 34.58957 5006 ft 266 kts 207°
2026-05-06 23:18 32.56532 34.58803 5056 ft 273 kts 161°
2026-05-06 23:18 32.54954 34.59937 5037 ft 272 kts 141°
2026-05-06 23:18 32.53549 34.61437 5013 ft 269 kts 131°
2026-05-06 23:18 32.52403 34.63206 5000 ft 273 kts 124°
2026-05-06 23:19 32.51400 34.65089 4998 ft 270 kts 120°
2026-05-06 23:19 32.50498 34.67064 4993 ft 271 kts 115°
2026-05-06 23:19 32.49881 34.69164 4995 ft 274 kts 103°
2026-05-06 23:19 32.49552 34.71363 4999 ft 269 kts 93°
2026-05-06 23:20 32.49737 34.73582 5000 ft 273 kts 74°
2026-05-06 23:20 32.50595 34.75484 5028 ft 270 kts 39°
2026-05-06 23:20 32.52299 34.76344 5048 ft 268 kts
2026-05-06 23:20 32.54111 34.75924 5047 ft 271 kts 321°
2026-05-06 23:21 32.55427 34.74356 5041 ft 268 kts 307°
2026-05-06 23:21 32.56512 34.72568 5022 ft 270 kts 303°
2026-05-06 23:21 32.57532 34.70715 5010 ft 265 kts 302°
2026-05-06 23:21 32.58523 34.68844 5000 ft 269 kts 301°
2026-05-06 23:22 32.59500 34.66974 5000 ft 267 kts 301°
2026-05-06 23:22 32.60491 34.65095 4997 ft 266 kts 302°
2026-05-06 23:22 32.61480 34.63229 4996 ft 270 kts 302°
2026-05-06 23:22 32.62458 34.61389 5000 ft 266 kts 302°
2026-05-06 23:23 32.63451 34.59512 4997 ft 268 kts 301°
2026-05-06 23:23 32.64397 34.57620 4999 ft 269 kts 299°
2026-05-06 23:23 32.65278 34.55670 5001 ft 265 kts 295°
2026-05-06 23:23 32.65775 34.53556 5005 ft 269 kts 275°
2026-05-06 23:24 32.65655 34.51379 5014 ft 266 kts 250°
2026-05-06 23:24 32.64756 34.49444 5006 ft 267 kts 231°
2026-05-06 23:24 32.63270 34.48229 5043 ft 270 kts 189°
2026-05-06 23:24 32.61392 34.48203 5031 ft 268 kts 171°
2026-05-06 23:25 32.59628 34.48906 5035 ft 273 kts 140°
2026-05-06 23:25 32.58428 34.50578 5031 ft 270 kts 119°
2026-05-06 23:25 32.57729 34.52656 5016 ft 273 kts 108°
2026-05-06 23:25 32.57116 34.54763 5005 ft 270 kts 110°
2026-05-06 23:26 32.56465 34.56873 4998 ft 270 kts 110°
2026-05-06 23:26 32.55802 34.58959 4995 ft 274 kts 111°
2026-05-06 23:26 32.55130 34.61048 4998 ft 269 kts 111°
2026-05-06 23:26 32.54453 34.63141 4995 ft 272 kts 111°
2026-05-06 23:27 32.53778 34.65219 4997 ft 273 kts 111°
2026-05-06 23:27 32.53099 34.67309 5000 ft 269 kts 111°
2026-05-06 23:27 32.52430 34.69368 4997 ft 273 kts 111°
2026-05-06 23:27 32.51754 34.71447 5000 ft 271 kts 111°
2026-05-06 23:28 32.51073 34.73539 5000 ft 269 kts 111°
2026-05-06 23:28 32.50385 34.75617 4999 ft 273 kts 111°
2026-05-06 23:28 32.49687 34.77687 5002 ft 270 kts 112°
2026-05-06 23:28 32.48981 34.79768 4999 ft 271 kts 112°
2026-05-06 23:29 32.48277 34.81833 4999 ft 274 kts 114°
2026-05-06 23:29 32.47026 34.83357 5048 ft 268 kts 169°
2026-05-06 23:29 32.45173 34.83443 5037 ft 268 kts 185°
2026-05-06 23:29 32.43312 34.83171 5015 ft 271 kts 189°
2026-05-06 23:30 32.41473 34.82779 5007 ft 268 kts 192°
2026-05-06 23:30 32.39632 34.82331 4999 ft 268 kts 192°
2026-05-06 23:30 32.37809 34.81863 4997 ft 271 kts 193°
2026-05-06 23:30 32.35985 34.81371 5000 ft 267 kts 193°
2026-05-06 23:31 32.34160 34.80859 4996 ft 269 kts 194°
2026-05-06 23:31 32.32354 34.80308 4997 ft 271 kts 196°
2026-05-06 23:31 32.30555 34.79687 5001 ft 266 kts 197°
2026-05-06 23:31 32.28788 34.79047 4997 ft 270 kts 198°
2026-05-06 23:32 32.27013 34.78389 5000 ft 269 kts 198°
2026-05-06 23:32 32.25225 34.77716 5000 ft 267 kts 198°
2026-05-06 23:32 32.23449 34.77027 4999 ft 271 kts 199°
2026-05-06 23:32 32.21678 34.76324 4948 ft 270 kts 199°
2026-05-06 23:33 32.19993 34.75650 6156 ft 248 kts 199°
2026-05-06 23:33 32.18099 34.74891 7132 ft 368 kts 199°
2026-05-06 23:33 32.15603 34.73888 7961 ft 365 kts 199°
2026-05-06 23:33 32.13120 34.72891 9922 ft 390 kts 199°
2026-05-06 23:34 32.10483 34.71833 10716 ft 401 kts 199°
2026-05-06 23:34 32.07860 34.70781 11383 ft 409 kts 199°
2026-05-06 23:34 32.05144 34.69692 11710 ft 413 kts 199°
2026-05-06 23:34 32.02420 34.68601 11857 ft 414 kts 199°
2026-05-06 23:35 31.99774 34.67542 11920 ft 380 kts 199°
2026-05-06 23:35 31.97286 34.66548 11956 ft 379 kts 199°
2026-05-06 23:35 31.94772 34.65618 11973 ft 378 kts 190°
2026-05-06 23:35 31.92252 34.66227 11799 ft 381 kts 144°
2026-05-06 23:36 31.90356 34.68377 11443 ft 379 kts 129°
2026-05-06 23:36 31.88804 34.70868 11228 ft 377 kts 123°
2026-05-06 23:36 31.87549 34.73504 11020 ft 355 kts 114°
2026-05-06 23:36 31.86569 34.76169 9120 ft 364 kts 113°
2026-05-06 23:37 31.85560 34.78917 7103 ft 376 kts 113°
2026-05-06 23:37 31.84110 34.81455 5237 ft 379 kts 146°
2026-05-06 23:37 31.81702 34.82031 4870 ft 342 kts 186°
2026-05-06 23:37 31.79507 34.81577 4742 ft 304 kts 226°
2026-05-06 23:38 31.79252 34.79325 3966 ft 295 kts 282°
2026-05-06 23:38 31.79902 34.77089 3174 ft 290 kts 330°
2026-05-06 23:38 31.81778 34.76909 2937 ft 266 kts
2026-05-06 23:38 31.83538 34.77033 2570 ft 266 kts
2026-05-06 23:39 31.85344 34.77170 2192 ft 261 kts
2026-05-06 23:39 31.87123 34.77468 1886 ft 261 kts 27°
2026-05-06 23:39 31.88250 34.78915 1425 ft 222 kts 79°
2026-05-06 23:39 31.88069 34.80632 1010 ft 216 kts 122°
2026-05-06 23:40 31.87010 34.81706 1113 ft 188 kts 158°
2026-05-06 23:40 31.85796 34.81949 718 ft 189 kts 184°
2026-05-06 23:40 31.84488 34.81843 191 ft 175 kts 184°
2026-05-06 23:40 31.83462 34.81774 183 ft 124 kts 183°
2026-05-06 23:41 31.82720 34.81740 180 ft 84 kts 181°
2026-05-06 23:41 31.82577 34.81740 182 ft 66 kts 176°
2026-05-06 23:41 31.82546 34.81743 303 ft 0 kts 205°
2026-05-06 23:41 31.82556 34.81734 1239 ft 0 kts